NOK273Y VTSP-VTCT

Flight info

Callsign NOK273Y
Flight time 1h 55m
Altitude 39000
Route VTSP/09 IGEVI Y5 CPN W34 MENEX G458 BKK/N0466F380 W9 PSL W22 BENVI
Aircraft A20N/M-SDE2E3FGHIRWXY/LB1

Departure

Time 2026-05-05 17:39
Airport Phuket International Airport (VTSP)

Arrival

Time 2026-05-05 19:34
Airport Mae Fah Luang - Chiang Rai International Airport (VTCT)
Time Latitude Longitude Altitude Speed Heading
2026-05-05 17:10 8.10716 98.30502 27 ft 0 kts 105°
2026-05-05 17:25 8.10720 98.30487 27 ft 4 kts 104°
2026-05-05 17:26 8.10727 98.30461 27 ft 3 kts 111°
2026-05-05 17:26 8.10733 98.30438 27 ft 4 kts 78°
2026-05-05 17:26 8.10721 98.30416 26 ft 4 kts 39°
2026-05-05 17:26 8.10698 98.30401 26 ft 4 kts 24°
2026-05-05 17:27 8.10673 98.30391 26 ft 4 kts 17°
2026-05-05 17:27 8.10662 98.30388 26 ft 1 kts 15°
2026-05-05 17:35 8.10663 98.30388 26 ft 1 kts 15°
2026-05-05 17:35 8.10697 98.30398 26 ft 9 kts 15°
2026-05-05 17:36 8.10772 98.30419 26 ft 13 kts 15°
2026-05-05 17:36 8.10871 98.30447 27 ft 16 kts 15°
2026-05-05 17:36 8.10975 98.30473 27 ft 11 kts 15°
2026-05-05 17:36 8.11036 98.30440 27 ft 12 kts 280°
2026-05-05 17:37 8.11047 98.30367 26 ft 11 kts 306°
2026-05-05 17:37 8.11122 98.30345 27 ft 13 kts 353°
2026-05-05 17:37 8.11185 98.30366 26 ft 10 kts 50°
2026-05-05 17:37 8.11205 98.30432 27 ft 0 kts 85°
2026-05-05 17:38 8.11205 98.30433 27 ft 2 kts 85°
2026-05-05 17:38 8.11230 98.30678 28 ft 71 kts 84°
2026-05-05 17:38 8.11297 98.31382 33 ft 128 kts 84°
2026-05-05 17:39 8.11395 98.32418 75 ft 168 kts 84°
2026-05-05 17:39 8.11504 98.33588 714 ft 158 kts 85°
2026-05-05 17:39 8.11579 98.34652 1454 ft 147 kts 85°
2026-05-05 17:39 8.11661 98.35714 1923 ft 160 kts 81°
2026-05-05 17:40 8.11869 98.36874 2270 ft 177 kts 78°
2026-05-05 17:40 8.12119 98.38143 2654 ft 191 kts 80°
2026-05-05 17:40 8.12310 98.39512 3062 ft 202 kts 84°
2026-05-05 17:40 8.12627 98.40936 3340 ft 218 kts 62°
2026-05-05 17:41 8.13705 98.42085 3526 ft 240 kts 30°
2026-05-05 17:41 8.15377 98.42589 3765 ft 264 kts
2026-05-05 17:41 8.17222 98.42687 4328 ft 271 kts
2026-05-05 17:41 8.19108 98.42794 5066 ft 273 kts
2026-05-05 17:42 8.21006 98.43008 5781 ft 276 kts 10°
2026-05-05 17:42 8.22915 98.43306 6448 ft 280 kts 12°
2026-05-05 17:42 8.24838 98.43652 7105 ft 282 kts 13°
2026-05-05 17:42 8.26778 98.44024 7723 ft 285 kts 13°
2026-05-05 17:43 8.28736 98.44404 8366 ft 288 kts 13°
2026-05-05 17:43 8.30714 98.44787 8959 ft 291 kts 13°
2026-05-05 17:43 8.32713 98.45172 9564 ft 294 kts 13°
2026-05-05 17:43 8.34736 98.45561 10099 ft 297 kts 13°
2026-05-05 17:44 8.36786 98.45957 10329 ft 312 kts 13°
2026-05-05 17:44 8.38973 98.46377 10474 ft 328 kts 13°
2026-05-05 17:44 8.41271 98.46814 10614 ft 343 kts 13°
2026-05-05 17:44 8.43641 98.47262 10974 ft 348 kts 12°
2026-05-05 17:45 8.46035 98.47716 11427 ft 351 kts 12°
2026-05-05 17:45 8.48447 98.48176 11873 ft 353 kts 12°
2026-05-05 17:45 8.50871 98.48641 12329 ft 355 kts 12°
2026-05-05 17:45 8.53310 98.49109 12725 ft 359 kts 12°
2026-05-05 17:46 8.55772 98.49581 13166 ft 361 kts 12°
2026-05-05 17:46 8.58239 98.50054 13561 ft 364 kts 12°
2026-05-05 17:46 8.60748 98.50534 13956 ft 366 kts 12°
2026-05-05 17:46 8.63255 98.51014 14343 ft 368 kts 12°
2026-05-05 17:47 8.65776 98.51500 14678 ft 370 kts 12°
2026-05-05 17:47 8.68310 98.51989 15011 ft 372 kts 12°
2026-05-05 17:47 8.70857 98.52481 15338 ft 374 kts 12°
2026-05-05 17:47 8.73420 98.52976 15644 ft 376 kts 12°
2026-05-05 17:48 8.75988 98.53470 15972 ft 377 kts 12°
2026-05-05 17:48 8.78574 98.53965 16272 ft 379 kts 12°
2026-05-05 17:48 8.81164 98.54463 16568 ft 380 kts 12°
2026-05-05 17:48 8.83772 98.54964 16858 ft 382 kts 11°
2026-05-05 17:49 8.86351 98.55458 17137 ft 383 kts 11°
2026-05-05 17:49 8.88977 98.55963 17422 ft 385 kts 11°
2026-05-05 17:49 8.91614 98.56473 17691 ft 386 kts 11°
2026-05-05 17:49 8.94260 98.56984 17955 ft 388 kts 11°
2026-05-05 17:50 8.96920 98.57497 18209 ft 389 kts 11°
2026-05-05 17:50 8.99588 98.58011 18439 ft 391 kts 11°
2026-05-05 17:50 9.02259 98.58524 18635 ft 392 kts 11°
2026-05-05 17:50 9.04952 98.59041 18849 ft 393 kts 11°
2026-05-05 17:51 9.07619 98.59656 19063 ft 394 kts 17°
2026-05-05 17:51 9.10192 98.60607 19268 ft 394 kts 24°
2026-05-05 17:51 9.12712 98.61724 19484 ft 395 kts 24°
2026-05-05 17:51 9.15204 98.62817 19688 ft 396 kts 24°
2026-05-05 17:52 9.17742 98.63925 19877 ft 398 kts 24°
2026-05-05 17:52 9.20287 98.65034 20071 ft 399 kts 24°
2026-05-05 17:52 9.22842 98.66147 20262 ft 400 kts 24°
2026-05-05 17:52 9.25405 98.67264 20446 ft 401 kts 24°
2026-05-05 17:53 9.27969 98.68383 20636 ft 402 kts 24°
2026-05-05 17:53 9.30552 98.69509 20825 ft 403 kts 24°
2026-05-05 17:53 9.33138 98.70637 21001 ft 405 kts 24°
2026-05-05 17:53 9.35729 98.71768 21172 ft 406 kts 24°
2026-05-05 17:54 9.38326 98.72901 21338 ft 407 kts 24°
2026-05-05 17:54 9.40897 98.74023 21500 ft 408 kts 24°
2026-05-05 17:54 9.43509 98.75164 21667 ft 409 kts 24°
2026-05-05 17:54 9.46125 98.76306 21836 ft 410 kts 24°
2026-05-05 17:55 9.48749 98.77452 21986 ft 411 kts 24°
2026-05-05 17:55 9.51378 98.78600 22145 ft 412 kts 24°
2026-05-05 17:55 9.54013 98.79751 22302 ft 413 kts 24°
2026-05-05 17:55 9.56653 98.80905 22450 ft 414 kts 24°
2026-05-05 17:56 9.59287 98.82102 22596 ft 415 kts 26°
2026-05-05 17:56 9.61891 98.83370 22746 ft 416 kts 26°
2026-05-05 17:56 9.64496 98.84658 22883 ft 417 kts 26°
2026-05-05 17:56 9.67106 98.85944 23025 ft 417 kts 26°
2026-05-05 17:57 9.69726 98.87223 23157 ft 419 kts 26°
2026-05-05 17:57 9.72356 98.88501 23289 ft 419 kts 26°
2026-05-05 17:57 9.74990 98.89781 23415 ft 420 kts 26°
2026-05-05 17:57 9.77600 98.91049 23519 ft 421 kts 26°
2026-05-05 17:58 9.80244 98.92332 23636 ft 422 kts 26°
2026-05-05 17:58 9.82897 98.93619 23741 ft 422 kts 26°
2026-05-05 17:58 9.85548 98.94905 23847 ft 423 kts 26°
2026-05-05 17:58 9.88207 98.96196 23946 ft 424 kts 26°
2026-05-05 17:59 9.90868 98.97488 24040 ft 424 kts 26°
2026-05-05 17:59 9.93533 98.98780 24133 ft 425 kts 26°
2026-05-05 17:59 9.96208 99.00078 24217 ft 426 kts 26°
2026-05-05 17:59 9.98878 99.01376 24322 ft 426 kts 26°
2026-05-05 18:00 10.01553 99.02676 24415 ft 427 kts 26°
2026-05-05 18:00 10.04235 99.03979 24499 ft 427 kts 26°
2026-05-05 18:00 10.06013 99.04844 24564 ft 428 kts 26°
2026-05-05 18:00 10.08697 99.06148 24647 ft 428 kts 26°
2026-05-05 18:01 10.11390 99.07457 24724 ft 429 kts 26°
2026-05-05 18:01 10.14088 99.08769 24811 ft 430 kts 26°
2026-05-05 18:01 10.16787 99.10081 24886 ft 430 kts 26°
2026-05-05 18:01 10.19487 99.11394 24962 ft 431 kts 26°
2026-05-05 18:02 10.22192 99.12710 25040 ft 431 kts 26°
2026-05-05 18:02 10.24902 99.14028 25109 ft 432 kts 26°
2026-05-05 18:02 10.27618 99.15349 25183 ft 433 kts 26°
2026-05-05 18:02 10.30333 99.16671 25264 ft 433 kts 26°
2026-05-05 18:03 10.33059 99.17998 25323 ft 434 kts 26°
2026-05-05 18:03 10.35784 99.19325 25398 ft 434 kts 26°
2026-05-05 18:03 10.38508 99.20652 25468 ft 435 kts 26°
2026-05-05 18:03 10.41238 99.21982 25532 ft 435 kts 26°
2026-05-05 18:04 10.43970 99.23313 25590 ft 436 kts 26°
2026-05-05 18:04 10.46712 99.24649 25657 ft 436 kts 26°
2026-05-05 18:04 10.49450 99.25983 25711 ft 437 kts 26°
2026-05-05 18:04 10.52195 99.27321 25768 ft 437 kts 26°
2026-05-05 18:05 10.54938 99.28659 25829 ft 438 kts 26°
2026-05-05 18:05 10.57689 99.30000 25892 ft 438 kts 26°
2026-05-05 18:05 10.60440 99.31342 25946 ft 439 kts 26°
2026-05-05 18:05 10.63194 99.32686 26002 ft 439 kts 26°
2026-05-05 18:06 10.65949 99.34030 26055 ft 440 kts 26°
2026-05-05 18:06 10.67737 99.34903 26087 ft 440 kts 26°
2026-05-05 18:06 10.71281 99.36997 26149 ft 440 kts 35°
2026-05-05 18:06 10.73692 99.38905 26200 ft 440 kts 41°
2026-05-05 18:07 10.75954 99.40998 26253 ft 440 kts 42°
2026-05-05 18:07 10.78229 99.43094 26294 ft 440 kts 42°
2026-05-05 18:07 10.80505 99.45182 26343 ft 441 kts 42°
2026-05-05 18:07 10.82782 99.47270 26396 ft 441 kts 42°
2026-05-05 18:08 10.85062 99.49363 26436 ft 442 kts 42°
2026-05-05 18:08 10.87346 99.51462 26481 ft 442 kts 42°
2026-05-05 18:08 10.89627 99.53559 26538 ft 442 kts 42°
2026-05-05 18:08 10.91909 99.55658 26572 ft 443 kts 42°
2026-05-05 18:09 10.94193 99.57759 26612 ft 443 kts 42°
2026-05-05 18:09 10.96480 99.59864 26654 ft 443 kts 42°
2026-05-05 18:09 10.98768 99.61971 26700 ft 443 kts 42°
2026-05-05 18:09 11.01056 99.64078 26730 ft 444 kts 42°
2026-05-05 18:10 11.03347 99.66187 26771 ft 444 kts 42°
2026-05-05 18:10 11.05642 99.68301 26811 ft 444 kts 42°
2026-05-05 18:10 11.07933 99.70412 26844 ft 445 kts 42°
2026-05-05 18:10 11.10231 99.72529 26887 ft 445 kts 42°
2026-05-05 18:11 11.12592 99.74497 26920 ft 445 kts 34°
2026-05-05 18:11 11.15257 99.76114 26951 ft 446 kts 26°
2026-05-05 18:11 11.18130 99.77308 26976 ft 447 kts 17°
2026-05-05 18:11 11.21124 99.78173 27002 ft 447 kts 15°
2026-05-05 18:12 11.24123 99.79029 27034 ft 448 kts 15°
2026-05-05 18:12 11.27121 99.79892 27069 ft 448 kts 15°
2026-05-05 18:12 11.30116 99.80755 27104 ft 448 kts 15°
2026-05-05 18:12 11.33116 99.81620 27138 ft 448 kts 15°
2026-05-05 18:13 11.36115 99.82484 27170 ft 448 kts 15°
2026-05-05 18:13 11.39119 99.83348 27201 ft 448 kts 15°
2026-05-05 18:13 11.42120 99.84212 27231 ft 449 kts 15°
2026-05-05 18:13 11.45128 99.85078 27258 ft 449 kts 15°
2026-05-05 18:14 11.48132 99.85943 27291 ft 449 kts 15°
2026-05-05 18:14 11.51137 99.86809 27320 ft 449 kts 15°
2026-05-05 18:14 11.54144 99.87675 27350 ft 449 kts 15°
2026-05-05 18:14 11.57153 99.88542 27384 ft 449 kts 15°
2026-05-05 18:15 11.60164 99.89409 27409 ft 449 kts 15°
2026-05-05 18:15 11.63175 99.90277 27442 ft 450 kts 15°
2026-05-05 18:15 11.66183 99.91145 27470 ft 450 kts 15°
2026-05-05 18:15 11.69193 99.92013 27500 ft 450 kts 15°
2026-05-05 18:16 11.72200 99.92880 27528 ft 450 kts 15°
2026-05-05 18:16 11.75175 99.93739 27555 ft 450 kts 15°
2026-05-05 18:16 11.78185 99.94607 27586 ft 450 kts 15°
2026-05-05 18:16 11.81199 99.95477 27614 ft 450 kts 15°
2026-05-05 18:17 11.84214 99.96348 27646 ft 450 kts 15°
2026-05-05 18:17 11.87223 99.97217 27673 ft 450 kts 15°
2026-05-05 18:17 11.90232 99.98086 27700 ft 450 kts 15°
2026-05-05 18:17 11.93243 99.98956 27732 ft 450 kts 15°
2026-05-05 18:18 11.96253 99.99826 27753 ft 450 kts 15°
2026-05-05 18:18 11.99261 100.00695 27792 ft 450 kts 15°
2026-05-05 18:18 12.02277 100.01568 27821 ft 449 kts 15°
2026-05-05 18:18 12.05290 100.02450 27849 ft 449 kts 16°
2026-05-05 18:19 12.08271 100.03395 27877 ft 449 kts 17°
2026-05-05 18:19 12.11249 100.04367 27911 ft 449 kts 17°
2026-05-05 18:19 12.14226 100.05339 27943 ft 449 kts 17°
2026-05-05 18:19 12.17201 100.06304 27971 ft 449 kts 17°
2026-05-05 18:20 12.20184 100.07267 28003 ft 449 kts 17°
2026-05-05 18:20 12.26109 100.09170 28064 ft 449 kts 17°
2026-05-05 18:21 12.32068 100.11082 28120 ft 448 kts 17°
2026-05-05 18:21 12.38024 100.12995 28181 ft 448 kts 17°
2026-05-05 18:22 12.43970 100.14905 28241 ft 448 kts 17°
2026-05-05 18:22 12.49921 100.16818 28298 ft 448 kts 17°
2026-05-05 18:23 12.55859 100.18728 28360 ft 447 kts 17°
2026-05-05 18:23 12.61800 100.20640 28420 ft 447 kts 17°
2026-05-05 18:24 12.67730 100.22549 28481 ft 447 kts 17°
2026-05-05 18:24 12.73660 100.24459 28544 ft 447 kts 17°
2026-05-05 18:25 12.79548 100.26357 28610 ft 446 kts 17°
2026-05-05 18:25 12.85472 100.28266 28664 ft 446 kts 17°
2026-05-05 18:26 12.91395 100.30177 28722 ft 446 kts 17°
2026-05-05 18:26 12.97313 100.32087 28788 ft 445 kts 17°
2026-05-05 18:27 13.03239 100.33964 28850 ft 445 kts 15°
2026-05-05 18:27 13.09192 100.35711 28921 ft 444 kts 15°
2026-05-05 18:27 13.12146 100.36577 29111 ft 440 kts 15°
2026-05-05 18:28 13.17934 100.38292 29706 ft 427 kts 15°
2026-05-05 18:28 13.20744 100.39130 30194 ft 414 kts 15°
2026-05-05 18:28 13.23468 100.39946 30670 ft 402 kts 15°
2026-05-05 18:29 13.26126 100.40743 30883 ft 398 kts 15°
2026-05-05 18:29 13.28795 100.41542 30867 ft 400 kts 15°
2026-05-05 18:29 13.34030 100.43102 30864 ft 404 kts 15°
2026-05-05 18:30 13.39444 100.44714 30865 ft 407 kts 15°
2026-05-05 18:30 13.44913 100.46342 30867 ft 410 kts 15°
2026-05-05 18:31 13.50416 100.47982 30868 ft 413 kts 15°
2026-05-05 18:31 13.55957 100.49634 30864 ft 416 kts 15°
2026-05-05 18:32 13.61579 100.51281 30865 ft 428 kts 14°
2026-05-05 18:32 13.67548 100.52192 30863 ft 444 kts 353°
2026-05-05 18:33 13.73751 100.51301 30879 ft 461 kts 351°
2026-05-05 18:33 13.80229 100.50378 30881 ft 477 kts 351°
2026-05-05 18:34 13.86868 100.49456 30884 ft 491 kts 351°
2026-05-05 18:34 13.88287 100.49260 30885 ft 493 kts 351°
2026-05-05 18:35 13.95078 100.48319 30883 ft 495 kts 351°
2026-05-05 18:35 14.01860 100.47372 30878 ft 489 kts 351°
2026-05-05 18:36 14.08580 100.46438 30878 ft 485 kts 351°
2026-05-05 18:36 14.15258 100.45511 30876 ft 483 kts 351°
2026-05-05 18:37 14.21912 100.44586 30874 ft 482 kts 351°
2026-05-05 18:37 14.28548 100.43662 30874 ft 480 kts 351°
2026-05-05 18:38 14.35162 100.42739 30873 ft 479 kts 352°
2026-05-05 18:38 14.41762 100.41818 30873 ft 478 kts 352°
2026-05-05 18:39 14.48346 100.40897 30871 ft 477 kts 352°
2026-05-05 18:39 14.54884 100.39982 30873 ft 477 kts 352°
2026-05-05 18:40 14.61455 100.39062 30873 ft 476 kts 352°
2026-05-05 18:40 14.68006 100.38143 30874 ft 475 kts 352°
2026-05-05 18:41 14.74580 100.37220 30870 ft 475 kts 352°
2026-05-05 18:41 14.81134 100.36299 30867 ft 475 kts 352°
2026-05-05 18:42 14.87678 100.35379 30872 ft 474 kts 352°
2026-05-05 18:42 14.94225 100.34457 30871 ft 474 kts 352°
2026-05-05 18:43 15.00710 100.33544 30874 ft 474 kts 352°
2026-05-05 18:43 15.07251 100.32622 30873 ft 473 kts 352°
2026-05-05 18:44 15.13790 100.31699 30873 ft 473 kts 352°
2026-05-05 18:44 15.20311 100.30778 30873 ft 473 kts 352°
2026-05-05 18:45 15.26831 100.29878 30876 ft 473 kts 354°
2026-05-05 18:45 15.33417 100.29728 30875 ft 473 kts 359°
2026-05-05 18:46 15.39996 100.29702 30874 ft 473 kts 359°
2026-05-05 18:46 15.46574 100.29672 30873 ft 473 kts 359°
2026-05-05 18:47 15.52047 100.29649 30871 ft 473 kts 359°
2026-05-05 18:47 15.59693 100.29618 30874 ft 473 kts 359°
2026-05-05 18:48 15.66263 100.29591 30878 ft 473 kts 359°
2026-05-05 18:48 15.71784 100.29568 30877 ft 472 kts 359°
2026-05-05 18:49 15.78318 100.29541 30878 ft 472 kts 359°
2026-05-05 18:49 15.84894 100.29514 30878 ft 472 kts 359°
2026-05-05 18:50 15.91466 100.29487 30878 ft 472 kts 359°
2026-05-05 18:50 15.98045 100.29459 30877 ft 472 kts 359°
2026-05-05 18:51 16.04623 100.29432 30877 ft 472 kts 359°
2026-05-05 18:51 16.11204 100.29405 30871 ft 472 kts 359°
2026-05-05 18:52 16.17783 100.29377 30875 ft 472 kts 359°
2026-05-05 18:52 16.24320 100.29350 30874 ft 472 kts 359°
2026-05-05 18:53 16.30904 100.29323 30870 ft 472 kts 359°
2026-05-05 18:53 16.37474 100.29297 30875 ft 472 kts 359°
2026-05-05 18:54 16.44051 100.29271 30873 ft 472 kts 359°
2026-05-05 18:54 16.50629 100.29245 30875 ft 472 kts 359°
2026-05-05 18:55 16.57211 100.29219 30877 ft 472 kts 359°
2026-05-05 18:55 16.63735 100.29193 30876 ft 472 kts 359°
2026-05-05 18:56 16.70313 100.29167 30878 ft 472 kts 359°
2026-05-05 18:56 16.76892 100.29124 30878 ft 472 kts 356°
2026-05-05 18:57 16.83430 100.28553 30881 ft 471 kts 354°
2026-05-05 18:57 16.89968 100.27958 30878 ft 472 kts 354°
2026-05-05 18:58 16.96510 100.27362 30877 ft 472 kts 354°
2026-05-05 18:58 17.03050 100.26765 30880 ft 472 kts 354°
2026-05-05 18:59 17.09597 100.26166 30880 ft 472 kts 354°
2026-05-05 18:59 17.16094 100.25570 30885 ft 472 kts 354°
2026-05-05 19:00 17.22633 100.24971 30884 ft 472 kts 354°
2026-05-05 19:00 17.29187 100.24371 30886 ft 472 kts 353°
2026-05-05 19:01 17.35735 100.23769 30886 ft 472 kts 353°
2026-05-05 19:01 17.42292 100.23163 30888 ft 473 kts 353°
2026-05-05 19:02 17.48845 100.22565 30889 ft 473 kts 353°
2026-05-05 19:02 17.55363 100.21967 30893 ft 473 kts 353°
2026-05-05 19:03 17.61926 100.21363 30893 ft 473 kts 353°
2026-05-05 19:03 17.68489 100.20760 30896 ft 473 kts 353°
2026-05-05 19:04 17.75050 100.20158 30899 ft 473 kts 353°
2026-05-05 19:04 17.81610 100.19556 30900 ft 473 kts 353°
2026-05-05 19:05 17.88172 100.18953 30900 ft 473 kts 353°
2026-05-05 19:05 17.94747 100.18349 30904 ft 473 kts 353°
2026-05-05 19:06 18.01271 100.17748 30908 ft 474 kts 353°
2026-05-05 19:06 18.07844 100.17143 30907 ft 474 kts 353°
2026-05-05 19:07 18.14403 100.16485 30907 ft 473 kts 349°
2026-05-05 19:07 18.20916 100.15464 30906 ft 473 kts 349°
2026-05-05 19:08 18.27420 100.14458 30906 ft 473 kts 349°
2026-05-05 19:08 18.33931 100.13448 30909 ft 472 kts 349°
2026-05-05 19:09 18.40433 100.12439 30909 ft 473 kts 349°
2026-05-05 19:09 18.43697 100.11931 30760 ft 476 kts 349°
2026-05-05 19:09 18.46990 100.11418 30537 ft 481 kts 349°
2026-05-05 19:10 18.50323 100.10900 30311 ft 485 kts 349°
2026-05-05 19:10 18.53658 100.10382 30089 ft 480 kts 349°
2026-05-05 19:10 18.56940 100.09874 29843 ft 473 kts 349°
2026-05-05 19:10 18.60188 100.09370 29581 ft 470 kts 349°
2026-05-05 19:11 18.63414 100.08867 29319 ft 467 kts 349°
2026-05-05 19:11 18.66621 100.08367 29060 ft 465 kts 349°
2026-05-05 19:11 18.69815 100.07869 28811 ft 462 kts 349°
2026-05-05 19:11 18.72991 100.07373 28551 ft 460 kts 349°
2026-05-05 19:12 18.76150 100.06879 28298 ft 458 kts 349°
2026-05-05 19:12 18.79301 100.06387 28049 ft 457 kts 349°
2026-05-05 19:12 18.82442 100.05897 27787 ft 456 kts 349°
2026-05-05 19:12 18.85590 100.05409 27298 ft 460 kts 349°
2026-05-05 19:13 18.88767 100.04916 26819 ft 463 kts 349°
2026-05-05 19:13 18.91930 100.04426 26366 ft 466 kts 349°
2026-05-05 19:13 18.95141 100.03928 26083 ft 465 kts 349°
2026-05-05 19:13 18.98331 100.03434 25827 ft 463 kts 349°
2026-05-05 19:14 19.01517 100.02940 25575 ft 461 kts 349°
2026-05-05 19:14 19.04694 100.02446 25325 ft 460 kts 349°
2026-05-05 19:14 19.07855 100.01955 25085 ft 458 kts 349°
2026-05-05 19:14 19.11006 100.01465 24845 ft 457 kts 349°
2026-05-05 19:15 19.14143 100.00978 24612 ft 455 kts 349°
2026-05-05 19:15 19.17237 100.00497 24395 ft 454 kts 349°
2026-05-05 19:15 19.20353 100.00012 24174 ft 452 kts 349°
2026-05-05 19:15 19.23465 99.99527 23959 ft 451 kts 349°
2026-05-05 19:16 19.26568 99.99044 23755 ft 450 kts 349°
2026-05-05 19:16 19.29660 99.98563 23544 ft 448 kts 349°
2026-05-05 19:16 19.32742 99.98082 23320 ft 447 kts 349°
2026-05-05 19:16 19.35818 99.97603 23095 ft 445 kts 349°
2026-05-05 19:17 19.38879 99.97126 22873 ft 443 kts 349°
2026-05-05 19:17 19.41927 99.96651 22644 ft 442 kts 349°
2026-05-05 19:17 19.44964 99.96177 22414 ft 439 kts 349°
2026-05-05 19:17 19.47974 99.95707 21916 ft 436 kts 349°
2026-05-05 19:18 19.50970 99.95237 21445 ft 434 kts 349°
2026-05-05 19:18 19.53945 99.94771 21003 ft 431 kts 349°
2026-05-05 19:18 19.56904 99.94307 20575 ft 428 kts 349°
2026-05-05 19:18 19.59839 99.93846 20150 ft 425 kts 349°
2026-05-05 19:19 19.62723 99.93221 19736 ft 420 kts 340°
2026-05-05 19:19 19.65347 99.91928 19310 ft 414 kts 325°
2026-05-05 19:19 19.67545 99.90003 18910 ft 408 kts 311°
2026-05-05 19:19 19.69167 99.87616 18442 ft 401 kts 296°
2026-05-05 19:20 19.70133 99.84831 17862 ft 395 kts 281°
2026-05-05 19:20 19.70312 99.81957 17254 ft 389 kts 265°
2026-05-05 19:20 19.69707 99.79183 16668 ft 385 kts 249°
2026-05-05 19:20 19.68381 99.76775 16094 ft 383 kts 232°
2026-05-05 19:21 19.66416 99.74895 15532 ft 382 kts 214°
2026-05-05 19:21 19.64115 99.73493 14968 ft 379 kts 216°
2026-05-05 19:21 19.62211 99.71623 14423 ft 371 kts 234°
2026-05-05 19:21 19.60973 99.69257 13879 ft 365 kts 251°
2026-05-05 19:22 19.60521 99.66639 13289 ft 360 kts 269°
2026-05-05 19:22 19.60900 99.64035 12693 ft 357 kts 288°
2026-05-05 19:22 19.62076 99.61732 12113 ft 357 kts 307°
2026-05-05 19:22 19.63928 99.59982 11539 ft 358 kts 327°
2026-05-05 19:23 19.66240 99.59008 10970 ft 361 kts 347°
2026-05-05 19:23 19.68749 99.58929 10419 ft 363 kts
2026-05-05 19:23 19.71130 99.59782 9977 ft 363 kts 28°
2026-05-05 19:23 19.73040 99.61475 9655 ft 356 kts 50°
2026-05-05 19:24 19.74214 99.63733 9321 ft 348 kts 72°
2026-05-05 19:24 19.74566 99.66221 8999 ft 335 kts 89°
2026-05-05 19:24 19.74233 99.68584 8666 ft 317 kts 113°
2026-05-05 19:24 19.73132 99.70520 8349 ft 299 kts 132°
2026-05-05 19:25 19.71596 99.71869 8114 ft 277 kts 156°
2026-05-05 19:25 19.69871 99.72586 7929 ft 256 kts 173°
2026-05-05 19:25 19.68175 99.72549 7760 ft 236 kts 191°
2026-05-05 19:25 19.66592 99.72289 7404 ft 232 kts 192°
2026-05-05 19:26 19.64982 99.72020 6992 ft 230 kts 192°
2026-05-05 19:26 19.63422 99.71881 6758 ft 228 kts 174°
2026-05-05 19:26 19.61985 99.72529 6597 ft 226 kts 142°
2026-05-05 19:26 19.61106 99.73878 6429 ft 224 kts 108°
2026-05-05 19:27 19.61058 99.75488 6255 ft 218 kts 72°
2026-05-05 19:27 19.61843 99.76812 6076 ft 214 kts 36°
2026-05-05 19:27 19.63139 99.77589 5925 ft 215 kts 17°
2026-05-05 19:27 19.64585 99.77998 5755 ft 214 kts
2026-05-05 19:28 19.66060 99.77927 5585 ft 212 kts 340°
2026-05-05 19:28 19.67341 99.77211 5422 ft 208 kts 313°
2026-05-05 19:28 19.68385 99.76149 5242 ft 205 kts 312°
2026-05-05 19:28 19.69407 99.75121 5062 ft 202 kts 317°
2026-05-05 19:29 19.70693 99.74521 4913 ft 210 kts 355°
2026-05-05 19:29 19.72145 99.74782 4768 ft 216 kts 20°
2026-05-05 19:29 19.73519 99.75480 4595 ft 222 kts 28°
2026-05-05 19:29 19.74875 99.76299 4427 ft 223 kts 28°
2026-05-05 19:30 19.76222 99.77095 4257 ft 220 kts 28°
2026-05-05 19:30 19.77551 99.77879 4112 ft 217 kts 29°
2026-05-05 19:30 19.78854 99.78648 3949 ft 211 kts 29°
2026-05-05 19:30 19.80124 99.79397 3802 ft 206 kts 29°
2026-05-05 19:31 19.81355 99.80120 3744 ft 198 kts 29°
2026-05-05 19:31 19.82553 99.80826 3602 ft 196 kts 28°
2026-05-05 19:31 19.83720 99.81513 3484 ft 192 kts 30°
2026-05-05 19:31 19.84857 99.82184 3306 ft 182 kts 29°
2026-05-05 19:32 19.85945 99.82827 3077 ft 175 kts 30°
2026-05-05 19:32 19.87008 99.83452 2861 ft 176 kts 30°
2026-05-05 19:32 19.88050 99.84066 2633 ft 166 kts 30°
2026-05-05 19:32 19.89029 99.84634 2401 ft 158 kts 29°
2026-05-05 19:33 19.89985 99.85193 2237 ft 155 kts 31°
2026-05-05 19:33 19.90900 99.85783 2020 ft 155 kts 30°
2026-05-05 19:33 19.91832 99.86321 1833 ft 148 kts 27°
2026-05-05 19:33 19.92728 99.86843 1628 ft 147 kts 28°
2026-05-05 19:34 19.93626 99.87364 1403 ft 148 kts 27°
2026-05-05 19:34 19.94508 99.87875 1285 ft 133 kts 27°
2026-05-05 19:34 19.95053 99.88188 1282 ft 45 kts 29°
2026-05-05 19:35 19.95234 99.88141 1285 ft 10 kts 300°
2026-05-05 19:35 19.95258 99.88095 1286 ft 11 kts 298°
2026-05-05 19:35 19.95318 99.88039 1285 ft 13 kts 337°
2026-05-05 19:35 19.95352 99.87999 1287 ft 6 kts 301°
2026-05-05 19:36 19.95367 99.87969 1285 ft 0 kts 299°